This demonstration page uses our WeatherBlox Daily Observations layout. Learn more.

Left ArrowRight Arrow

31.84235, -102.49876

Hourly Observations for December 9, 2020

Temp ( °F °C ) Dew Point ( °F °C ) Humidity (%) Winds ( mph kmh ) Pressure ( in mb ) Visibility ( mi km ) Precip ( " mm )
12:53 am 00:53 Clear 43 6.1 13 -10.6 29 29 W 7 11 30.20 1023 10 16 0.00 0.00
1:53 am 01:53 Clear 43 6.1 14 -10 31 31 W 6 9 30.18 1022 10 16 0.00 0.00
2:53 am 02:53 Clear 37 2.8 13 -10.6 37 37 W 7 11 30.19 1022 10 16 0.00 0.00
3:53 am 03:53 Clear 42 5.6 15 -9.4 33 33 WNW 6 9 30.17 1022 10 16 0.00 0.00
4:53 am 04:53 Clear 40 4.4 16 -8.9 38 38 W 5 7 30.16 1021 10 16 0.00 0.00
5:53 am 05:53 Clear 38 3.3 15 -9.4 39 39 W 6 9 30.17 1022 10 16 0.00 0.00
6:53 am 06:53 Clear 37 2.8 15 -9.4 41 41 W 3 6 30.18 1022 10 16 0.00 0.00
7:53 am 07:53 Sunny 36 2.2 15 -9.4 42 42 W 6 9 30.21 1023 10 16 0.00 0.00
8:53 am 08:53 Sunny 42 5.6 15 -9.4 33 33 Calm 30.20 1023 10 16 0.00 0.00
9:53 am 09:53 Sunny 55 12.8 14 -10 20 20 WSW 9 15 30.19 1022 10 16 0.00 0.00
10:53 am 10:53 Sunny 60 15.6 14 -10 16 16 WSW 10 17 30.18 1022 10 16 0.00 0.00
11:53 am 11:53 Sunny 65 18.3 14 -10 14 14 WSW 6 9 30.15 1021 10 16 0.00 0.00
12:53 pm 12:53 Sunny 68 20 13 -10.6 12 12 SW 12 19 30.10 1019 10 16 0.00 0.00
1:53 pm 13:53 Sunny 69 20.6 14 -10 12 12 W 13 20 30.05 1018 10 16 0.00 0.00
2:53 pm 14:53 Sunny 70 21.1 15 -9.4 12 12 WSW 12 19 30.04 1017 10 16 0.00 0.00
3:53 pm 15:53 Sunny 70 21.1 11 -11.7 10 10 WSW 10 17 30.01 1016 10 16 0.00 0.00
4:53 pm 16:53 Sunny 69 20.6 14 -10 12 12 SW 9 15 30.00 1016 10 16 0.00 0.00
5:53 pm 17:53 Clear 64 17.8 14 -10 14 14 SSW 5 7 30.01 1016 10 16 0.00 0.00
6:53 pm 18:53 Clear 60 15.6 17 -8.3 19 19 S 7 11 30.02 1017 10 16 0.00 0.00
7:53 pm 19:53 Clear 56 13.3 19 -7.2 24 24 SSW 5 7 30.04 1017 10 16 0.00 0.00
8:53 pm 20:53 Clear 53 11.7 20 -6.7 27 27 SSW 5 7 30.02 1017 10 16 0.00 0.00
9:53 pm 21:53 Clear 52 11.1 21 -6.1 30 30 SW 3 6 29.99 1016 10 16 0.00 0.00
10:53 pm 22:53 Clear 50 10 20 -6.7 30 30 S 6 9 29.98 1015 10 16 0.00 0.00
11:53 pm 23:53 Clear 49 9.4 19 -7.2 31 31 SSW 7 11 29.97 1015 10 16 0.00 0.00

Powered by Vaisala Xweather